EW2974 Weather Reports


Display with metric or nautical units.
time (UTC)temp
F
wind
direction
speed
MPH
gust
MPH
rain 1hr
in
rain 24hr
in
rain mn
in
humidity
%
barometer
mb
20260904175405 74 77 0.0 0.0 0.00 1.23 0.30 94 1013.9
20260904174905 74 77 0.0 0.0 0.00 1.23 0.30 94 1013.9
20260904174404 73 77 0.0 0.0 0.00 1.23 0.30 94 1014.1
20260904173904 73 77 0.0 0.0 0.00 1.23 0.30 93 1014.0
20260904173404 73 77 0.0 0.0 0.00 1.23 0.30 93 1014.1
20260904172904 74 77 0.0 0.0 0.00 1.23 0.30 93 1014.3
20260904172406 74 77 0.0 0.0 0.00 1.23 0.30 93 1014.2
20260904171905 74 78 0.0 0.0 0.00 1.23 0.30 92 1014.2
20260904171404 74 77 0.0 0.0 0.00 1.23 0.30 92 1014.2
20260904170904 74 242 0.0 0.0 0.00 1.23 0.30 92 1014.2
20260904165905 75 242 0.0 0.0 0.00 1.23 0.30 95 1014.0
20260904165405 74 242 0.0 0.0 0.00 1.23 0.30 96 1014.2
20260904164904 74 242 0.0 0.0 0.00 1.23 0.30 96 1014.2
20260904164404 74 242 0.0 0.0 0.01 1.23 0.30 96 1014.2
20260904163904 73 242 0.0 0.0 0.01 1.23 0.30 96 1014.4
20260904163404 73 242 0.0 0.0 0.01 1.23 0.30 96 1014.6
20260904162904 72 242 0.0 0.0 0.01 1.23 0.30 96 1014.5
20260904162404 72 242 0.0 0.0 0.01 1.23 0.30 96 1014.4
20260904161905 72 242 0.0 0.0 0.02 1.23 0.30 96 1014.3
20260904161404 72 242 0.0 1.0 0.03 1.23 0.30 96 1014.1
20260904160905 72 293 0.0 0.0 0.03 1.23 0.30 96 1014.1
20260904160404 71 293 0.0 0.0 0.04 1.23 0.30 96 1013.8
20260904155904 71 293 0.0 0.0 0.05 1.23 0.30 96 1013.7
20260904155405 71 293 0.0 0.0 0.05 1.23 0.30 96 1013.9
20260904154905 70 293 0.0 0.0 0.06 1.23 0.30 96 1014.2
20260904154405 70 293 0.0 0.0 0.06 1.22 0.29 96 1014.3
20260904153905 70 293 0.0 0.0 0.08 1.22 0.29 96 1014.2
20260904153404 70 293 0.0 0.0 0.08 1.22 0.29 96 1014.4
20260904152906 70 293 0.0 0.0 0.08 1.22 0.29 96 1014.5
20260904152404 70 293 0.0 0.0 0.10 1.22 0.29 96 1014.8
20260904151404 70 293 0.0 0.0 0.26 1.20 0.27 96 1014.9
20260904150905 70 293 0.0 0.0 0.26 1.20 0.27 96 1014.8
20260904150404 70 293 0.0 0.0 0.25 1.19 0.26 96 1014.8
20260904145904 70 293 0.0 0.0 0.24 1.18 0.25 96 1014.8
20260904145404 70 293 0.0 0.0 0.24 1.18 0.25 96 1015.0
20260904144904 70 293 0.0 0.0 0.23 1.17 0.24 96 1015.1
20260904144405 70 293 0.0 0.0 0.22 1.16 0.23 96 1015.1
20260904143904 69 293 0.0 0.0 0.20 1.14 0.21 96 1015.1
20260904142904 69 293 0.0 0.0 0.20 1.14 0.21 96 1015.0
20260904142405 70 293 0.0 0.0 0.18 1.12 0.19 96 1014.6
20260904141905 70 293 0.0 0.0 0.06 1.00 0.07 96 1015.1
20260904141404 70 296 0.0 0.0 0.00 0.94 0.01 96 1015.3
20260904140904 70 296 0.0 0.0 0.00 0.94 0.01 96 1014.8
20260904140404 70 296 0.0 0.0 0.00 0.94 0.01 96 1014.3
20260904135904 70 296 0.0 0.0 0.00 0.94 0.01 96 1014.3
20260904134904 70 297 0.0 0.0 0.00 0.95 0.01 96 1014.3
20260904133404 69 297 0.0 0.0 0.00 0.95 0.01 96 1013.9
20260904132905 69 297 0.0 0.0 0.00 0.95 0.01 96 1013.8
20260904132404 69 297 0.0 0.0 0.00 0.95 0.01 96 1013.7
20260904131905 69 297 0.0 0.0 0.00 0.95 0.01 96 1013.9
20260904130904 69 297 0.0 0.0 0.00 0.95 0.01 96 1013.9
20260904130405 69 297 0.0 0.0 0.00 0.95 0.01 96 1014.0
20260904125404 69 297 0.0 0.0 0.00 0.95 0.01 96 1014.0
20260904124904 68 297 0.0 0.0 0.00 0.95 0.01 96 1014.1
20260904124405 68 297 0.0 0.0 0.00 0.95 0.01 96 1014.2
20260904123904 68 297 0.0 0.0 0.00 0.95 0.01 96 1014.2
20260904123404 68 297 0.0 0.0 0.00 0.95 0.01 96 1014.1
20260904122904 68 297 0.0 0.0 0.00 0.95 0.01 96 1014.1
20260904122404 68 297 0.0 0.0 0.00 0.95 0.01 96 1014.1
20260904121904 68 296 0.0 0.0 0.00 0.95 0.01 96 1014.1
20260904121404 67 300 0.0 0.0 0.00 0.95 0.01 96 1014.3
20260904120904 67 300 0.0 0.0 0.00 0.95 0.01 96 1014.2
20260904120404 67 300 0.0 0.0 0.00 0.95 0.01 96 1014.0
20260904115904 67 300 0.0 0.0 0.00 0.95 0.01 96 1014.1
20260904115404 67 300 0.0 0.0 0.00 0.95 0.01 96 1014.2
20260904114904 67 300 0.0 0.0 0.00 0.95 0.01 96 1014.2
20260904114404 67 300 0.0 0.0 0.00 0.95 0.01 96 1014.1
20260904113904 67 300 0.0 0.0 0.00 0.95 0.01 96 1014.1
20260904113404 67 300 0.0 0.0 0.00 0.95 0.01 96 1014.1
20260904112404 67 300 0.0 0.0 0.00 1.13 0.01 96 1014.2
20260904111904 67 300 0.0 0.0 0.00 1.13 0.01 96 1014.0
20260904111404 67 300 0.0 0.0 0.00 1.14 0.01 96 1013.9
20260904110904 67 300 0.0 0.0 0.00 1.14 0.01 96 1014.0
20260904110404 67 300 0.0 0.0 0.00 1.14 0.01 96 1013.9
20260904105904 67 300 0.0 0.0 0.00 1.14 0.01 96 1013.6
20260904104904 67 300 0.0 0.0 0.00 1.14 0.01 96 1013.5
20260904104404 67 300 0.0 0.0 0.00 1.14 0.01 96 1013.6
20260904103903 67 300 0.0 0.0 0.00 1.14 0.01 96 1013.5
20260904103404 67 300 0.0 0.0 0.00 1.15 0.01 96 1013.4
20260904101905 67 300 0.0 0.0 0.00 1.18 0.01 96 1013.6
20260904101404 67 300 0.0 0.0 0.00 1.26 0.01 96 1013.8
20260904100904 67 300 0.0 0.0 0.00 1.29 0.01 96 1013.8
20260904100404 67 300 0.0 0.0 0.00 1.29 0.01 96 1013.7
20260904095904 67 300 0.0 0.0 0.00 1.29 0.01 96 1013.7
20260904094904 67 300 0.0 0.0 0.00 1.29 0.01 96 1013.7
20260904094404 67 300 0.0 0.0 0.00 1.29 0.01 96 1013.7
20260904093405 67 300 0.0 0.0 0.00 1.29 0.01 96 1013.6
20260904092904 67 300 0.0 0.0 0.00 1.29 0.01 96 1013.6
20260904091904 67 300 0.0 0.0 0.00 1.29 0.01 96 1013.6
20260904090904 67 300 0.0 0.0 0.00 1.29 0.01 96 1013.5
20260904090404 67 300 0.0 0.0 0.00 1.29 0.01 96 1013.4
20260904085904 67 300 0.0 0.0 0.00 1.29 0.01 96 1013.3
20260904085404 67 300 0.0 0.0 0.00 1.29 0.01 96 1013.2
20260904084404 67 300 0.0 0.0 0.00 1.30 0.01 95 1013.3
20260904083904 67 300 0.0 0.0 0.00 1.30 0.01 95 1013.4
20260904083404 67 300 0.0 0.0 0.00 1.30 0.01 96 1013.3
20260904082904 67 300 0.0 0.0 0.00 1.30 0.01 96 1013.3
20260904082404 67 300 0.0 0.0 0.00 1.30 0.01 96 1013.5
20260904081904 67 300 0.0 0.0 0.00 1.30 0.01 96 1013.6
20260904081404 67 300 0.0 0.0 0.00 1.30 0.01 96 1013.6
20260904080904 67 300 0.0 0.0 0.00 1.30 0.01 96 1013.7
20260904080404 67 300 0.0 0.0 0.00 1.30 0.01 96 1013.5
20260904075904 67 300 0.0 0.0 0.00 1.30 0.01 96 1013.4
20260904074904 67 300 0.0 0.0 0.00 1.30 0.01 96 1013.4
20260904074404 67 300 0.0 0.0 0.00 1.30 0.01 96 1013.3
20260904073904 67 300 0.0 0.0 0.00 1.30 0.01 95 1013.2
20260904072404 68 300 0.0 0.0 0.00 1.30 0.01 96 1013.1
20260904071904 68 300 0.0 0.0 0.00 1.30 0.01 96 1013.1
20260904071404 68 300 0.0 0.0 0.00 1.30 0.01 96 1013.0
20260904070903 68 300 0.0 0.0 0.00 1.30 0.01 96 1013.1
20260904070404 68 300 0.0 0.0 0.00 1.30 0.01 95 1012.6
20260904065904 68 300 0.0 0.0 0.00 1.30 0.01 96 1012.5
20260904065404 68 300 0.0 0.0 0.00 1.30 0.01 96 1012.6
20260904064904 68 300 0.0 0.0 0.00 1.30 0.01 96 1012.7
20260904063904 68 300 0.0 0.0 0.00 1.30 0.01 96 1012.9
20260904063404 68 300 0.0 0.0 0.00 1.30 0.01 96 1012.9
20260904062904 68 300 0.0 0.0 0.01 1.30 0.01 96 1012.8
20260904062404 68 300 0.0 0.0 0.01 1.30 0.01 96 1012.8
20260904061904 68 300 0.0 0.0 0.01 1.30 0.01 96 1012.8
20260904061405 68 300 0.0 0.0 0.01 1.30 0.01 96 1012.9
20260904055905 68 300 0.0 0.0 0.01 1.30 0.01 96 1013.0
20260904054405 68 300 0.0 0.0 0.01 1.30 0.01 96 1013.1
20260904053905 68 300 0.0 0.0 0.01 1.30 0.01 96 1013.1
20260904053405 68 300 0.0 0.0 0.01 1.30 0.01 96 1013.2
20260904052905 68 300 0.0 0.0 0.00 1.29 0.00 96 1013.2
20260904051905 68 300 0.0 0.0 0.00 1.29 0.00 96 1013.2
20260904051405 68 300 0.0 0.0 0.00 1.29 0.00 96 1013.1
20260904050405 68 300 0.0 0.0 0.00 1.29 0.00 96 1013.0
20260904045905 68 300 0.0 0.0 0.00 1.29 0.00 96 1012.9
20260904045405 68 300 0.0 0.0 0.00 1.29 0.00 95 1012.7
20260904044905 68 300 0.0 0.0 0.00 1.29 0.00 95 1012.6
20260904044405 68 300 0.0 0.0 0.00 1.29 0.00 95 1012.6
20260904043905 68 300 0.0 0.0 0.00 1.29 0.00 95 1012.4
20260904043405 68 300 0.0 0.0 0.05 1.29 0.00 95 1012.7
20260904042905 68 300 0.0 0.0 0.05 1.29 0.00 95 1012.9
20260904041905 69 300 0.0 0.0 0.14 1.29 0.00 95 1012.8
20260904040905 69 300 0.0 0.0 0.15 1.29 0.00 95 1012.8
20260904040405 69 300 0.0 0.0 0.15 1.29 0.00 96 1012.9
20260904035905 69 300 0.0 0.0 0.15 1.29 1.29 96 1013.2
20260904035405 69 302 0.0 0.0 0.15 1.29 1.29 95 1013.2
20260904034905 69 286 1.0 3.0 0.15 1.29 1.29 95 1012.7
20260904034405 69 276 1.0 3.0 0.15 1.29 1.29 95 1012.3
20260904033905 69 154 1.0 3.0 0.15 1.29 1.29 95 1012.6
20260904033405 69 257 3.0 8.0 0.11 1.25 1.25 95 1012.8
20260904032905 69 267 2.0 5.0 0.10 1.24 1.24 95 1012.1
20260904030905 69 269 0.0 0.0 0.00 1.14 1.14 95 1012.3
20260904030405 69 269 0.0 0.0 0.00 1.14 1.14 95 1012.6
20260904025905 69 269 0.0 0.0 0.00 1.14 1.14 95 1012.6
20260904025405 69 269 0.0 0.0 0.00 1.14 1.14 95 1012.5
20260904024905 69 269 0.0 0.0 0.00 1.14 1.14 95 1012.5
20260904023405 69 180 0.0 0.0 0.00 1.14 1.14 95 1012.6
20260904022905 69 180 0.0 0.0 0.00 1.14 1.14 95 1012.5
20260904021905 69 180 0.0 0.0 0.00 1.14 1.14 95 1012.4
20260904020904 69 180 0.0 0.0 0.00 1.14 1.14 95 1012.1
20260904020404 69 211 0.0 0.0 0.00 1.14 1.14 95 1012.4
20260904015905 69 261 0.0 0.0 0.00 1.14 1.14 95 1012.3
20260904014904 69 262 0.0 0.0 0.00 1.14 1.14 95 1012.4
20260904014404 69 262 0.0 0.0 0.00 1.14 1.14 95 1012.4
20260904013405 69 262 0.0 0.0 0.01 1.14 1.14 95 1012.3
20260904012905 69 262 0.0 0.0 0.02 1.14 1.14 95 1012.4
20260904012405 69 262 0.0 0.0 0.02 1.14 1.14 95 1012.5
20260904011405 69 262 0.0 0.0 0.02 1.14 1.14 95 1012.4
20260904010405 69 262 0.0 0.0 0.05 1.14 1.14 94 1012.8
20260904005904 69 262 0.0 0.0 0.07 1.14 1.14 94 1013.2
20260904005405 69 262 0.0 0.0 0.08 1.14 1.14 94 1013.4
20260904004905 69 269 0.0 0.0 0.10 1.14 1.14 95 1013.3
20260904004405 69 269 0.0 0.0 0.10 1.14 1.14 95 1013.2
20260904003905 69 269 0.0 0.0 0.11 1.13 1.13 95 1013.0
20260904003405 69 270 0.0 0.0 0.11 1.13 1.13 95 1013.1
20260904002405 69 270 0.0 0.0 0.13 1.12 1.12 95 1013.7
20260904001905 69 270 0.0 0.0 0.13 1.13 1.12 95 1013.9
20260904001404 69 269 0.0 0.0 0.14 1.13 1.12 95 1014.1
20260903235904 69 269 0.0 0.0 0.17 1.08 1.07 95 1015.1
20260903235405 69 269 0.0 1.0 0.18 1.07 1.06 95 1015.6
20260903234905 69 201 0.0 0.0 0.16 1.05 1.04 94 1015.9
20260903233905 69 187 0.0 0.0 0.15 1.03 1.02 94 1016.1
20260903233404 69 59 0.0 0.0 0.17 1.03 1.02 94 1015.5
20260903232905 69 59 0.0 0.0 0.15 1.01 1.00 94 1015.1
20260903232404 69 59 0.0 0.0 0.14 1.00 0.99 94 1014.5
20260903231905 69 59 0.0 1.0 0.14 1.00 0.99 94 1014.3
20260903231404 70 83 0.0 5.0 0.13 0.99 0.98 93 1014.0
20260903230905 70 49 0.0 3.0 0.11 0.97 0.96 92 1014.5
20260903230404 71 34 1.0 3.0 0.07 0.93 0.92 92 1015.1
20260903225912 73 50 4.0 14.0 0.05 0.91 0.90 93 1015.3
20260903225405 73 5 0.0 0.0 0.03 0.89 0.88 95 1013.3
20260903224905 73 5 0.0 0.0 0.03 0.89 0.88 95 1012.6
20260903224405 74 5 0.0 0.0 0.03 0.89 0.88 95 1012.9
20260903223904 74 5 0.0 0.0 0.02 0.88 0.87 95 1012.6
20260903223404 74 5 0.0 0.0 0.00 0.86 0.85 95 1012.2
20260903222905 74 5 0.0 0.0 0.00 0.86 0.85 95 1012.4
20260903222404 74 5 0.0 0.0 0.00 0.86 0.85 94 1012.5
20260903221904 74 5 0.0 0.0 0.00 0.86 0.85 95 1012.4
20260903221405 74 5 0.0 0.0 0.00 0.86 0.85 94 1012.6
20260903220904 74 5 0.0 0.0 0.00 0.86 0.85 94 1012.6
20260903220404 74 5 0.0 0.0 0.00 0.86 0.85 94 1012.3
20260903215905 74 5 0.0 0.0 0.00 0.86 0.85 94 1012.4
20260903215405 74 5 0.0 0.0 0.00 0.86 0.85 94 1012.6
20260903214904 74 5 0.0 0.0 0.00 0.87 0.85 94 1012.4
20260903213904 74 5 0.0 0.0 0.00 0.87 0.85 94 1012.1
20260903213404 74 5 0.0 0.0 0.00 0.87 0.85 94 1012.2
20260903212904 75 279 0.0 0.0 0.00 0.87 0.85 94 1012.0
20260903212404 74 279 0.0 0.0 0.02 0.87 0.85 94 1012.1
20260903211905 74 279 0.0 0.0 0.15 0.87 0.85 94 1011.9
20260903211404 74 292 0.0 0.0 0.15 0.87 0.85 94 1011.4
20260903210904 74 41 0.0 0.0 0.30 0.88 0.85 94 1010.6
20260903210404 74 41 0.0 0.0 0.43 0.92 0.85 94 1010.5
20260903205905 74 41 0.0 0.0 0.43 0.92 0.85 94 1010.5
20260903205405 73 41 0.0 0.0 0.48 0.92 0.85 94 1010.6
20260903204904 73 41 0.0 1.0 0.49 0.92 0.85 94 1010.9
20260903204404 72 38 0.0 0.0 0.49 0.94 0.85 94 1010.7
20260903203404 71 38 0.0 0.0 0.49 0.94 0.85 93 1011.4
20260903202905 71 38 0.0 0.0 0.49 0.94 0.85 92 1012.0
20260903201905 71 36 0.0 0.0 0.34 0.79 0.70 90 1012.9
20260903200404 76 34 0.0 3.0 0.06 0.51 0.42 80 1013.0
20260903195905 79 257 0.0 8.0 0.06 0.51 0.42 72 1010.7
20260903195404 83 255 10.0 22.0 0.01 0.46 0.37 64 1010.0
20260903194904 86 248 3.0 18.0 0.00 0.45 0.36 64 1009.9
20260903194404 87 271 1.0 14.0 0.00 0.45 0.36 71 1010.5
20260903193905 88 243 0.0 0.0 0.00 0.45 0.36 72 1010.4
20260903193404 89 243 0.0 0.0 0.00 0.45 0.36 71 1010.3
20260903192904 89 192 0.0 0.0 0.00 0.45 0.36 69 1009.9
20260903192404 90 249 0.0 0.0 0.00 0.45 0.36 67 1010.0
20260903191904 90 262 0.0 1.0 0.00 0.45 0.36 66 1010.3
20260903191404 90 256 0.0 1.0 0.00 0.45 0.36 66 1010.4
20260903190904 91 282 0.0 3.0 0.00 0.45 0.36 64 1010.6
20260903190404 91 198 1.0 8.0 0.00 0.45 0.36 65 1010.8
20260903185904 91 230 0.0 6.0 0.00 0.45 0.36 65 1011.0
20260903185404 91 275 0.0 5.0 0.00 0.45 0.36 67 1011.0
20260903184904 90 257 0.0 1.0 0.00 0.45 0.36 68 1011.2
20260903184404 89 242 0.0 1.0 0.00 0.45 0.36 70 1011.3
20260903183905 89 263 1.0 5.0 0.00 0.45 0.36 68 1011.4
20260903183404 88 262 0.0 5.0 0.00 0.45 0.36 70 1011.5
20260903182905 88 264 0.0 5.0 0.00 0.45 0.36 70 1011.7
20260903182404 88 165 0.0 1.0 0.00 0.45 0.36 70 1011.7
20260903181905 88 253 1.0 8.0 0.00 0.45 0.36 69 1011.7
20260903181404 88 271 0.0 6.0 0.00 0.45 0.36 70 1011.8
20260903180904 88 195 0.0 0.0 0.00 0.45 0.36 72 1011.8
20260903180404 87 195 0.0 3.0 0.00 0.45 0.36 74 1011.7
20260903175904 87 302 0.0 1.0 0.00 0.45 0.36 72 1011.7